| time (UTC) | temp C | wind direction | speed KPH | gust KPH | rain 1hr cm | rain 24hr cm | rain mn cm | humidity % | barometer mb |
| 20260902060905 | 12 | 5 | 0.0 | 3.2 | 0.00 | 0.00 | 0.00 | 92 | 1019.6 |
| 20260902060405 | 12 | 5 | 0.0 | 3.2 | 0.00 | 0.00 | 0.00 | 92 | 1019.6 |
| 20260902055904 | 12 | 5 | 0.0 | 3.2 | 0.00 | 0.00 | 0.00 | 92 | 1019.7 |
| 20260902055404 | 11 | 5 | 1.6 | 3.2 | 0.00 | 0.00 | 0.00 | 92 | 1019.7 |
| 20260902054904 | 11 | 5 | 0.0 | 0.0 | 0.00 | 0.00 | 0.00 | 92 | 1019.7 |
| 20260902053904 | 11 | 5 | 0.0 | 0.0 | 0.00 | 0.00 | 0.00 | 92 | 1019.7 |
| 20260902053405 | 11 | 5 | 0.0 | 0.0 | 0.00 | 0.00 | 0.00 | 92 | 1019.7 |
| 20260902052905 | 11 | 5 | 0.0 | 0.0 | 0.00 | 0.00 | 0.00 | 92 | 1019.7 |
| 20260902051404 | 11 | 5 | 0.0 | 1.6 | 0.00 | 0.00 | 0.00 | 92 | 1019.5 |
| 20260902050904 | 11 | 5 | 0.0 | 0.0 | 0.00 | 0.00 | 0.00 | 92 | 1019.5 |
| 20260902050404 | 11 | 5 | 0.0 | 0.0 | 0.00 | 0.00 | 0.00 | 91 | 1019.5 |
| 20260902044404 | 11 | 5 | 0.0 | 0.0 | 0.00 | 0.00 | 0.00 | 91 | 1019.4 |
| 20260902043904 | 11 | 5 | 0.0 | 0.0 | 0.00 | 0.00 | 0.00 | 91 | 1019.4 |
| 20260902043404 | 11 | 5 | 0.0 | 0.0 | 0.00 | 0.00 | 0.00 | 91 | 1019.3 |
| 20260902042904 | 11 | 5 | 0.0 | 0.0 | 0.00 | 0.00 | 0.00 | 91 | 1019.3 |
| 20260902042404 | 11 | 5 | 0.0 | 3.2 | 0.00 | 0.00 | 0.00 | 91 | 1019.3 |
| 20260902041404 | 11 | 5 | 1.6 | 3.2 | 0.00 | 0.00 | 0.00 | 91 | 1019.2 |
| 20260902040904 | 11 | 5 | 1.6 | 3.2 | 0.00 | 0.00 | 0.00 | 90 | 1019.1 |
| 20260902035904 | 11 | 5 | 0.0 | 0.0 | 0.00 | 0.00 | 0.00 | 90 | 1019.2 |
| 20260902035405 | 11 | 5 | 0.0 | 0.0 | 0.00 | 0.00 | 0.00 | 90 | 1019.2 |
| 20260902034904 | 11 | 5 | 0.0 | 0.0 | 0.00 | 0.00 | 0.00 | 90 | 1019.2 |
| 20260902034404 | 11 | 5 | 0.0 | 0.0 | 0.00 | 0.00 | 0.00 | 90 | 1019.1 |
| 20260902033904 | 11 | 5 | 0.0 | 0.0 | 0.00 | 0.00 | 0.00 | 90 | 1019.1 |
| 20260902033404 | 11 | 5 | 0.0 | 0.0 | 0.00 | 0.00 | 0.00 | 90 | 1019.1 |
| 20260902032404 | 11 | 5 | 0.0 | 0.0 | 0.00 | 0.00 | 0.00 | 90 | 1019.1 |
| 20260902031404 | 11 | 5 | 0.0 | 0.0 | 0.00 | 0.00 | 0.00 | 90 | 1019.1 |
| 20260902030904 | 11 | 5 | 0.0 | 1.6 | 0.00 | 0.00 | 0.00 | 90 | 1019.1 |
| 20260902030404 | 11 | 5 | 0.0 | 1.6 | 0.00 | 0.00 | 0.00 | 90 | 1019.2 |
| 20260902024904 | 11 | 5 | 1.6 | 3.2 | 0.00 | 0.00 | 0.00 | 90 | 1019.2 |
| 20260902024404 | 11 | 5 | 1.6 | 3.2 | 0.00 | 0.00 | 0.00 | 90 | 1019.2 |
| 20260902023904 | 11 | 5 | 0.0 | 0.0 | 0.00 | 0.00 | 0.00 | 90 | 1019.3 |
| 20260902023404 | 11 | 5 | 0.0 | 0.0 | 0.00 | 0.00 | 0.00 | 90 | 1019.4 |
| 20260902022905 | 11 | 5 | 1.6 | 3.2 | 0.00 | 0.00 | 0.00 | 90 | 1019.4 |
| 20260902022404 | 11 | 5 | 1.6 | 3.2 | 0.00 | 0.00 | 0.00 | 90 | 1019.4 |
| 20260902021905 | 11 | 5 | 0.0 | 3.2 | 0.00 | 0.00 | 0.00 | 90 | 1019.5 |
| 20260902021404 | 11 | 5 | 3.2 | 4.8 | 0.00 | 0.00 | 0.00 | 90 | 1019.5 |
| 20260902020904 | 11 | 5 | 1.6 | 3.2 | 0.00 | 0.00 | 0.00 | 90 | 1019.5 |
| 20260902020404 | 11 | 5 | 1.6 | 3.2 | 0.00 | 0.00 | 0.00 | 89 | 1019.5 |
| 20260902015904 | 11 | 5 | 1.6 | 4.8 | 0.00 | 0.00 | 0.00 | 89 | 1019.4 |
| 20260902015405 | 11 | 321 | 3.2 | 4.8 | 0.00 | 0.00 | 0.00 | 89 | 1019.4 |
| 20260902014904 | 11 | 294 | 0.0 | 4.8 | 0.00 | 0.00 | 0.00 | 89 | 1019.3 |
| 20260902014404 | 11 | 294 | 0.0 | 0.0 | 0.00 | 0.00 | 0.00 | 89 | 1019.4 |
| 20260902013904 | 11 | 294 | 0.0 | 0.0 | 0.00 | 0.00 | 0.00 | 89 | 1019.4 |
| 20260902013404 | 11 | 294 | 0.0 | 0.0 | 0.00 | 0.00 | 0.00 | 88 | 1019.4 |
| 20260902012404 | 11 | 294 | 0.0 | 0.0 | 0.00 | 0.00 | 0.00 | 88 | 1019.4 |
| 20260902011905 | 11 | 294 | 0.0 | 0.0 | 0.00 | 0.00 | 0.00 | 88 | 1019.4 |
| 20260902011404 | 11 | 294 | 0.0 | 0.0 | 0.00 | 0.00 | 0.00 | 88 | 1019.3 |
| 20260902010904 | 11 | 294 | 0.0 | 0.0 | 0.00 | 0.00 | 0.00 | 88 | 1019.3 |
| 20260902010404 | 11 | 294 | 0.0 | 0.0 | 0.00 | 0.00 | 0.00 | 88 | 1019.3 |
| 20260902005904 | 11 | 294 | 0.0 | 0.0 | 0.00 | 0.00 | 0.00 | 88 | 1019.3 |
| 20260902005404 | 11 | 294 | 0.0 | 0.0 | 0.00 | 0.00 | 0.00 | 88 | 1019.3 |
| 20260902004904 | 11 | 294 | 0.0 | 0.0 | 0.00 | 0.00 | 0.00 | 87 | 1019.3 |
| 20260902004404 | 11 | 294 | 0.0 | 0.0 | 0.00 | 0.00 | 0.00 | 87 | 1019.2 |
| 20260902003904 | 11 | 294 | 0.0 | 0.0 | 0.00 | 0.00 | 0.00 | 87 | 1019.2 |
| 20260902002905 | 12 | 294 | 0.0 | 0.0 | 0.00 | 0.00 | 0.00 | 87 | 1019.3 |
| 20260902002405 | 12 | 294 | 0.0 | 0.0 | 0.00 | 0.00 | 0.00 | 87 | 1019.3 |
| 20260902001904 | 12 | 294 | 0.0 | 0.0 | 0.00 | 0.00 | 0.00 | 87 | 1019.3 |
| 20260902001405 | 12 | 294 | 0.0 | 0.0 | 0.00 | 0.00 | 0.00 | 86 | 1019.3 |
| 20260902000905 | 12 | 294 | 0.0 | 0.0 | 0.00 | 0.00 | 0.00 | 87 | 1019.3 |
| 20260902000406 | 12 | 294 | 0.0 | 0.0 | 0.00 | 0.00 | 0.00 | 86 | 1019.3 |
| 20260901235904 | 12 | 294 | 0.0 | 0.0 | 0.00 | 0.00 | 0.00 | 86 | 1019.2 |
| 20260901235406 | 12 | 294 | 0.0 | 0.0 | 0.00 | 0.00 | 0.00 | 86 | 1019.2 |
| 20260901234904 | 12 | 294 | 0.0 | 0.0 | 0.00 | 0.00 | 0.00 | 86 | 1019.3 |
| 20260901234404 | 12 | 294 | 0.0 | 0.0 | 0.00 | 0.00 | 0.00 | 86 | 1019.2 |
| 20260901233904 | 12 | 294 | 0.0 | 0.0 | 0.00 | 0.00 | 0.00 | 86 | 1019.2 |
| 20260901233404 | 12 | 294 | 0.0 | 0.0 | 0.00 | 0.00 | 0.00 | 86 | 1019.2 |
| 20260901232404 | 12 | 294 | 0.0 | 0.0 | 0.00 | 0.00 | 0.00 | 85 | 1019.1 |
| 20260901231404 | 12 | 294 | 0.0 | 0.0 | 0.00 | 0.00 | 0.00 | 86 | 1019.1 |
| 20260901230904 | 12 | 294 | 0.0 | 20.9 | 0.00 | 0.00 | 0.00 | 86 | 1019.1 |
| 20260901230404 | 13 | 294 | 0.0 | 0.0 | 0.00 | 0.00 | 0.00 | 85 | 1019.1 |
| 20260901225905 | 13 | 294 | 0.0 | 0.0 | 0.00 | 0.00 | 0.00 | 85 | 1019.2 |
| 20260901225404 | 13 | 294 | 0.0 | 0.0 | 0.00 | 0.00 | 0.00 | 85 | 1019.2 |
| 20260901224904 | 13 | 294 | 0.0 | 0.0 | 0.00 | 0.00 | 0.00 | 85 | 1019.1 |
| 20260901224404 | 13 | 294 | 0.0 | 0.0 | 0.00 | 0.00 | 0.00 | 85 | 1019.1 |
| 20260901223405 | 13 | 294 | 0.0 | 0.0 | 0.00 | 0.00 | 0.00 | 84 | 1019.1 |
| 20260901222904 | 13 | 294 | 0.0 | 0.0 | 0.00 | 0.00 | 0.00 | 84 | 1019.1 |
| 20260901222404 | 13 | 294 | 0.0 | 0.0 | 0.00 | 0.00 | 0.00 | 83 | 1019.2 |
| 20260901221404 | 13 | 294 | 0.0 | 0.0 | 0.00 | 0.00 | 0.00 | 83 | 1019.2 |
| 20260901220904 | 13 | 294 | 0.0 | 0.0 | 0.00 | 0.00 | 0.00 | 83 | 1019.1 |
| 20260901215904 | 13 | 294 | 0.0 | 0.0 | 0.00 | 0.00 | 0.00 | 82 | 1019.1 |
| 20260901215404 | 13 | 294 | 0.0 | 0.0 | 0.00 | 0.00 | 0.00 | 82 | 1019.1 |
| 20260901214905 | 13 | 294 | 0.0 | 0.0 | 0.00 | 0.00 | 0.00 | 82 | 1019.1 |
| 20260901214404 | 14 | 294 | 0.0 | 0.0 | 0.00 | 0.00 | 0.00 | 82 | 1019.1 |
| 20260901212904 | 14 | 294 | 0.0 | 0.0 | 0.00 | 0.00 | 0.00 | 81 | 1019.1 |
| 20260901212405 | 14 | 294 | 0.0 | 0.0 | 0.00 | 0.00 | 0.00 | 81 | 1019.1 |
| 20260901211904 | 14 | 294 | 0.0 | 0.0 | 0.00 | 0.00 | 0.00 | 81 | 1019.1 |
| 20260901211405 | 15 | 294 | 0.0 | 0.0 | 0.00 | 0.00 | 0.00 | 80 | 1019.0 |
| 20260901210904 | 15 | 294 | 0.0 | 0.0 | 0.00 | 0.00 | 0.00 | 79 | 1019.0 |
| 20260901210404 | 15 | 294 | 0.0 | 0.0 | 0.00 | 0.00 | 0.00 | 79 | 1018.9 |
| 20260901205404 | 15 | 294 | 0.0 | 0.0 | 0.00 | 0.00 | 0.00 | 79 | 1018.9 |
| 20260901204905 | 15 | 294 | 0.0 | 0.0 | 0.00 | 0.00 | 0.00 | 78 | 1018.9 |
| 20260901204404 | 15 | 294 | 0.0 | 0.0 | 0.00 | 0.00 | 0.00 | 78 | 1018.9 |
| 20260901203904 | 15 | 294 | 0.0 | 0.0 | 0.00 | 0.00 | 0.00 | 78 | 1018.8 |
| 20260901202904 | 15 | 294 | 0.0 | 0.0 | 0.00 | 0.00 | 0.00 | 77 | 1018.8 |
| 20260901202404 | 16 | 294 | 0.0 | 0.0 | 0.00 | 0.00 | 0.00 | 76 | 1018.8 |
| 20260901201904 | 16 | 294 | 0.0 | 1.6 | 0.00 | 0.00 | 0.00 | 76 | 1018.7 |
| 20260901201404 | 16 | 294 | 1.6 | 4.8 | 0.00 | 0.00 | 0.00 | 76 | 1018.7 |
| 20260901200404 | 16 | 294 | 1.6 | 4.8 | 0.00 | 0.00 | 0.00 | 75 | 1018.7 |
| 20260901195904 | 16 | 293 | 1.6 | 4.8 | 0.00 | 0.00 | 0.00 | 76 | 1018.7 |
| 20260901195404 | 16 | 292 | 3.2 | 4.8 | 0.00 | 0.00 | 0.00 | 74 | 1018.6 |
| 20260901194905 | 16 | 292 | 1.6 | 3.2 | 0.00 | 0.00 | 0.00 | 74 | 1018.6 |
| 20260901194404 | 16 | 292 | 0.0 | 1.6 | 0.00 | 0.00 | 0.00 | 73 | 1018.5 |
| 20260901193904 | 17 | 292 | 3.2 | 4.8 | 0.00 | 0.00 | 0.00 | 73 | 1018.6 |
| 20260901193405 | 17 | 292 | 0.0 | 0.0 | 0.00 | 0.00 | 0.00 | 72 | 1018.6 |
| 20260901192905 | 17 | 292 | 0.0 | 0.0 | 0.00 | 0.00 | 0.00 | 71 | 1018.5 |
| 20260901192404 | 17 | 292 | 0.0 | 0.0 | 0.00 | 0.00 | 0.00 | 71 | 1018.5 |
| 20260901191905 | 17 | 292 | 0.0 | 1.6 | 0.00 | 0.00 | 0.00 | 71 | 1018.5 |
| 20260901191405 | 17 | 292 | 0.0 | 1.6 | 0.00 | 0.00 | 0.00 | 70 | 1018.5 |
| 20260901190904 | 17 | 292 | 0.0 | 1.6 | 0.00 | 0.00 | 0.00 | 70 | 1018.5 |
| 20260901190405 | 18 | 292 | 0.0 | 0.0 | 0.00 | 0.00 | 0.00 | 70 | 1018.5 |
| 20260901185904 | 18 | 292 | 0.0 | 0.0 | 0.00 | 0.00 | 0.00 | 69 | 1018.5 |
| 20260901185404 | 18 | 292 | 0.0 | 0.0 | 0.00 | 0.00 | 0.00 | 68 | 1018.4 |
| 20260901184904 | 18 | 292 | 0.0 | 3.2 | 0.00 | 0.00 | 0.00 | 67 | 1018.4 |
| 20260901184404 | 18 | 292 | 0.0 | 4.8 | 0.00 | 0.00 | 0.00 | 66 | 1018.4 |
| 20260901183904 | 18 | 292 | 0.0 | 0.0 | 0.00 | 0.00 | 0.00 | 66 | 1018.4 |
| 20260901182904 | 19 | 292 | 0.0 | 1.6 | 0.00 | 0.00 | 0.00 | 65 | 1018.3 |
| 20260901182404 | 20 | 292 | 3.2 | 3.2 | 0.00 | 0.00 | 0.00 | 64 | 1018.3 |
| 20260901181405 | 20 | 292 | 0.0 | 0.0 | 0.00 | 0.00 | 0.00 | 62 | 1018.2 |
| 20260901180404 | 21 | 292 | 0.0 | 1.6 | 0.00 | 0.00 | 0.00 | 60 | 1018.1 |
| 20260901175904 | 21 | 292 | 0.0 | 0.0 | 0.00 | 0.00 | 0.00 | 60 | 1018.1 |
| 20260901175405 | 21 | 292 | 0.0 | 0.0 | 0.00 | 0.00 | 0.00 | 58 | 1018.0 |
| 20260901174404 | 21 | 292 | 0.0 | 0.0 | 0.00 | 0.00 | 0.00 | 56 | 1017.9 |
| 20260901173904 | 22 | 292 | 0.0 | 0.0 | 0.00 | 0.00 | 0.00 | 55 | 1017.8 |
| 20260901172905 | 22 | 292 | 0.0 | 0.0 | 0.00 | 0.00 | 0.00 | 54 | 1017.7 |
| 20260901172404 | 22 | 292 | 0.0 | 0.0 | 0.00 | 0.00 | 0.00 | 53 | 1017.7 |
| 20260901171904 | 22 | 292 | 0.0 | 1.6 | 0.00 | 0.00 | 0.00 | 52 | 1017.6 |
| 20260901171404 | 22 | 292 | 0.0 | 4.8 | 0.00 | 0.00 | 0.00 | 52 | 1017.7 |
| 20260901170904 | 23 | 292 | 3.2 | 8.0 | 0.00 | 0.00 | 0.00 | 52 | 1017.7 |
| 20260901170404 | 23 | 294 | 0.0 | 1.6 | 0.00 | 0.00 | 0.00 | 51 | 1017.7 |
| 20260901165904 | 23 | 294 | 0.0 | 3.2 | 0.00 | 0.00 | 0.00 | 51 | 1017.6 |
| 20260901165404 | 23 | 294 | 0.0 | 3.2 | 0.00 | 0.00 | 0.00 | 51 | 1017.6 |
| 20260901164905 | 23 | 294 | 1.6 | 4.8 | 0.00 | 0.00 | 0.00 | 50 | 1017.6 |
| 20260901164404 | 23 | 304 | 3.2 | 8.0 | 0.00 | 0.00 | 0.00 | 49 | 1017.6 |
| 20260901163904 | 24 | 301 | 3.2 | 8.0 | 0.00 | 0.00 | 0.00 | 49 | 1017.6 |
| 20260901163404 | 24 | 288 | 1.6 | 4.8 | 0.00 | 0.00 | 0.00 | 49 | 1017.7 |
| 20260901162904 | 24 | 300 | 3.2 | 9.7 | 0.00 | 0.00 | 0.00 | 48 | 1017.7 |
| 20260901162404 | 25 | 291 | 3.2 | 4.8 | 0.00 | 0.00 | 0.00 | 48 | 1017.7 |
| 20260901161904 | 25 | 296 | 3.2 | 8.0 | 0.00 | 0.00 | 0.00 | 47 | 1017.6 |
| 20260901161404 | 25 | 295 | 3.2 | 8.0 | 0.00 | 0.00 | 0.00 | 46 | 1017.6 |
| 20260901160904 | 25 | 292 | 4.8 | 9.7 | 0.00 | 0.00 | 0.00 | 45 | 1017.7 |
| 20260901160404 | 25 | 304 | 6.4 | 11.3 | 0.00 | 0.00 | 0.00 | 45 | 1017.7 |
| 20260901155404 | 25 | 330 | 4.8 | 11.3 | 0.00 | 0.00 | 0.00 | 46 | 1017.7 |
| 20260901154904 | 25 | 293 | 4.8 | 9.7 | 0.00 | 0.00 | 0.00 | 46 | 1017.6 |
| 20260901154404 | 25 | 294 | 6.4 | 11.3 | 0.00 | 0.00 | 0.00 | 46 | 1017.6 |
| 20260901153904 | 25 | 289 | 3.2 | 9.7 | 0.00 | 0.00 | 0.00 | 46 | 1017.6 |
| 20260901153404 | 25 | 309 | 3.2 | 9.7 | 0.00 | 0.00 | 0.00 | 46 | 1017.5 |
| 20260901152904 | 25 | 307 | 4.8 | 19.3 | 0.00 | 0.00 | 0.00 | 46 | 1017.5 |
| 20260901152404 | 25 | 296 | 6.4 | 11.3 | 0.00 | 0.00 | 0.00 | 46 | 1017.5 |
| 20260901151904 | 25 | 281 | 3.2 | 9.7 | 0.00 | 0.00 | 0.00 | 46 | 1017.4 |
| 20260901151404 | 25 | 270 | 3.2 | 8.0 | 0.00 | 0.00 | 0.00 | 46 | 1017.4 |
| 20260901150904 | 25 | 287 | 3.2 | 9.7 | 0.00 | 0.00 | 0.00 | 44 | 1017.4 |
| 20260901150404 | 26 | 302 | 4.8 | 11.3 | 0.00 | 0.00 | 0.00 | 44 | 1017.4 |
| 20260901145904 | 26 | 285 | 8.0 | 16.1 | 0.00 | 0.00 | 0.00 | 44 | 1017.5 |
| 20260901145405 | 26 | 294 | 8.0 | 16.1 | 0.00 | 0.00 | 0.00 | 43 | 1017.5 |
| 20260901144904 | 26 | 301 | 8.0 | 14.5 | 0.00 | 0.00 | 0.00 | 43 | 1017.5 |
| 20260901144405 | 26 | 290 | 11.3 | 19.3 | 0.00 | 0.00 | 0.00 | 42 | 1017.4 |
| 20260901143904 | 26 | 262 | 4.8 | 12.9 | 0.00 | 0.00 | 0.00 | 45 | 1017.4 |
| 20260901143404 | 26 | 231 | 3.2 | 9.7 | 0.00 | 0.00 | 0.00 | 44 | 1017.4 |
| 20260901142904 | 26 | 315 | 11.3 | 19.3 | 0.00 | 0.00 | 0.00 | 43 | 1017.4 |
| 20260901142404 | 26 | 290 | 8.0 | 19.3 | 0.00 | 0.00 | 0.00 | 44 | 1017.4 |
| 20260901141904 | 25 | 254 | 3.2 | 9.7 | 0.00 | 0.00 | 0.00 | 46 | 1017.3 |
| 20260901140404 | 26 | 277 | 4.8 | 12.9 | 0.00 | 0.00 | 0.00 | 45 | 1017.4 |
| 20260901135906 | 26 | 288 | 8.0 | 12.9 | 0.00 | 0.00 | 0.00 | 45 | 1017.4 |
| 20260901135404 | 26 | 240 | 6.4 | 14.5 | 0.00 | 0.00 | 0.00 | 46 | 1017.4 |
| 20260901134904 | 26 | 234 | 4.8 | 14.5 | 0.00 | 0.00 | 0.00 | 44 | 1017.5 |
| 20260901133904 | 26 | 287 | 4.8 | 16.1 | 0.00 | 0.03 | 0.00 | 44 | 1017.5 |
| 20260901133404 | 26 | 308 | 11.3 | 16.1 | 0.00 | 0.03 | 0.00 | 44 | 1017.5 |
| 20260901132904 | 26 | 301 | 12.9 | 20.9 | 0.00 | 0.03 | 0.00 | 46 | 1017.5 |
| 20260901132405 | 26 | 275 | 3.2 | 16.1 | 0.00 | 0.03 | 0.00 | 46 | 1017.5 |
| 20260901131905 | 25 | 238 | 4.8 | 14.5 | 0.00 | 0.03 | 0.00 | 49 | 1017.5 |
| 20260901131404 | 25 | 225 | 4.8 | 14.5 | 0.00 | 0.03 | 0.00 | 51 | 1017.5 |
| 20260901130904 | 25 | 232 | 4.8 | 16.1 | 0.00 | 0.03 | 0.00 | 53 | 1017.6 |
| 20260901130405 | 24 | 246 | 8.0 | 16.1 | 0.00 | 0.03 | 0.00 | 50 | 1017.6 |
| 20260901125904 | 24 | 233 | 4.8 | 11.3 | 0.00 | 0.03 | 0.00 | 52 | 1017.6 |
| 20260901125404 | 24 | 291 | 6.4 | 11.3 | 0.00 | 0.03 | 0.00 | 52 | 1017.6 |
| 20260901124904 | 24 | 286 | 9.7 | 19.3 | 0.00 | 0.03 | 0.00 | 50 | 1017.7 |
| 20260901124405 | 24 | 227 | 4.8 | 14.5 | 0.00 | 0.03 | 0.00 | 52 | 1017.6 |
| 20260901123904 | 23 | 327 | 4.8 | 14.5 | 0.00 | 0.03 | 0.00 | 53 | 1017.7 |
| 20260901123404 | 23 | 286 | 6.4 | 11.3 | 0.00 | 0.03 | 0.00 | 52 | 1017.7 |
| 20260901122904 | 23 | 298 | 6.4 | 11.3 | 0.00 | 0.03 | 0.00 | 53 | 1017.7 |
| 20260901122404 | 23 | 295 | 4.8 | 12.9 | 0.00 | 0.03 | 0.00 | 54 | 1017.7 |
| 20260901121904 | 23 | 219 | 3.2 | 11.3 | 0.00 | 0.03 | 0.00 | 55 | 1017.7 |
| 20260901121405 | 23 | 281 | 3.2 | 8.0 | 0.00 | 0.03 | 0.00 | 54 | 1017.7 |
| 20260901120905 | 23 | 320 | 4.8 | 12.9 | 0.00 | 0.03 | 0.00 | 55 | 1017.7 |
| 20260901120405 | 23 | 273 | 6.4 | 14.5 | 0.00 | 0.03 | 0.00 | 54 | 1017.7 |
| 20260901115904 | 23 | 299 | 9.7 | 19.3 | 0.00 | 0.03 | 0.00 | 54 | 1017.7 |
| 20260901115404 | 23 | 247 | 4.8 | 11.3 | 0.00 | 0.03 | 0.00 | 56 | 1017.6 |
| 20260901114904 | 23 | 219 | 1.6 | 8.0 | 0.00 | 0.03 | 0.00 | 56 | 1017.7 |
| 20260901114404 | 23 | 279 | 4.8 | 9.7 | 0.00 | 0.03 | 0.00 | 56 | 1017.8 |
| 20260901113904 | 23 | 229 | 3.2 | 9.7 | 0.00 | 0.03 | 0.00 | 56 | 1017.9 |
| 20260901112904 | 23 | 304 | 6.4 | 19.3 | 0.00 | 0.03 | 0.00 | 57 | 1017.9 |
| 20260901112404 | 22 | 263 | 4.8 | 16.1 | 0.00 | 0.03 | 0.00 | 58 | 1017.8 |
| 20260901111904 | 22 | 238 | 4.8 | 11.3 | 0.00 | 0.03 | 0.00 | 60 | 1017.9 |
| 20260901111404 | 22 | 274 | 3.2 | 11.3 | 0.00 | 0.03 | 0.00 | 58 | 1017.9 |
| 20260901105905 | 22 | 279 | 3.2 | 9.7 | 0.00 | 0.03 | 0.00 | 60 | 1017.9 |
| 20260901105405 | 22 | 218 | 1.6 | 4.8 | 0.00 | 0.03 | 0.00 | 59 | 1017.9 |
| 20260901104404 | 22 | 217 | 1.6 | 4.8 | 0.00 | 0.03 | 0.00 | 60 | 1018.0 |
| 20260901103904 | 22 | 268 | 3.2 | 11.3 | 0.00 | 0.03 | 0.00 | 59 | 1018.0 |
| 20260901103404 | 22 | 310 | 4.8 | 11.3 | 0.00 | 0.03 | 0.00 | 60 | 1018.0 |
| 20260901102904 | 22 | 278 | 1.6 | 4.8 | 0.00 | 0.03 | 0.00 | 60 | 1018.0 |
| 20260901102405 | 22 | 277 | 4.8 | 4.8 | 0.00 | 0.03 | 0.00 | 60 | 1018.0 |
| 20260901101904 | 22 | 294 | 4.8 | 9.7 | 0.00 | 0.03 | 0.00 | 60 | 1017.9 |
| 20260901101404 | 22 | 293 | 4.8 | 11.3 | 0.00 | 0.03 | 0.00 | 61 | 1017.9 |
| 20260901100904 | 22 | 232 | 4.8 | 9.7 | 0.00 | 0.03 | 0.00 | 64 | 1018.0 |
| 20260901095905 | 21 | 267 | 3.2 | 12.9 | 0.00 | 0.03 | 0.00 | 63 | 1018.0 |
| 20260901095404 | 21 | 239 | 6.4 | 12.9 | 0.00 | 0.03 | 0.00 | 64 | 1018.0 |
| 20260901094904 | 21 | 38 | 4.8 | 11.3 | 0.00 | 0.03 | 0.00 | 63 | 1018.1 |
| 20260901094404 | 21 | 233 | 1.6 | 11.3 | 0.00 | 0.03 | 0.00 | 65 | 1018.0 |
| 20260901093904 | 21 | 236 | 3.2 | 8.0 | 0.00 | 0.03 | 0.00 | 64 | 1018.0 |
| 20260901093404 | 21 | 279 | 4.8 | 9.7 | 0.00 | 0.03 | 0.00 | 63 | 1018.1 |
| 20260901092904 | 21 | 283 | 3.2 | 9.7 | 0.00 | 0.03 | 0.00 | 65 | 1018.0 |
| 20260901092404 | 21 | 244 | 3.2 | 9.7 | 0.00 | 0.03 | 0.00 | 64 | 1018.1 |
| 20260901091905 | 21 | 275 | 3.2 | 11.3 | 0.00 | 0.03 | 0.00 | 63 | 1018.0 |
| 20260901090904 | 21 | 287 | 6.4 | 12.9 | 0.00 | 0.03 | 0.00 | 64 | 1018.0 |
| 20260901090404 | 21 | 293 | 6.4 | 12.9 | 0.00 | 0.03 | 0.00 | 65 | 1018.0 |
| 20260901085904 | 21 | 292 | 3.2 | 12.9 | 0.00 | 0.03 | 0.00 | 64 | 1018.1 |
| 20260901085404 | 21 | 220 | 3.2 | 8.0 | 0.00 | 0.03 | 0.00 | 65 | 1017.9 |
| 20260901084904 | 21 | 246 | 6.4 | 12.9 | 0.00 | 0.03 | 0.00 | 65 | 1018.0 |
| 20260901084404 | 21 | 281 | 3.2 | 11.3 | 0.00 | 0.03 | 0.00 | 66 | 1018.0 |
| 20260901083905 | 21 | 294 | 6.4 | 12.9 | 0.00 | 0.03 | 0.00 | 66 | 1017.9 |
| 20260901083404 | 21 | 241 | 4.8 | 9.7 | 0.00 | 0.03 | 0.00 | 66 | 1017.9 |
| 20260901082904 | 21 | 289 | 8.0 | 14.5 | 0.00 | 0.03 | 0.00 | 67 | 1017.9 |
| 20260901081904 | 20 | 308 | 8.0 | 14.5 | 0.00 | 0.03 | 0.00 | 67 | 1017.9 |
| 20260901081404 | 20 | 290 | 6.4 | 12.9 | 0.00 | 0.03 | 0.00 | 68 | 1018.0 |
| 20260901080404 | 20 | 243 | 8.0 | 19.3 | 0.00 | 0.03 | 0.00 | 69 | 1017.9 |
| 20260901075904 | 20 | 235 | 4.8 | 19.3 | 0.00 | 0.03 | 0.00 | 70 | 1017.8 |
| 20260901075404 | 19 | 236 | 1.6 | 9.7 | 0.00 | 0.03 | 0.00 | 72 | 1017.8 |
| 20260901074904 | 19 | 234 | 3.2 | 9.7 | 0.00 | 0.03 | 0.00 | 74 | 1017.8 |
| 20260901074404 | 19 | 234 | 4.8 | 12.9 | 0.00 | 0.03 | 0.00 | 73 | 1017.7 |
| 20260901073905 | 18 | 233 | 8.0 | 14.5 | 0.00 | 0.03 | 0.00 | 73 | 1017.7 |
| 20260901072904 | 18 | 192 | 3.2 | 8.0 | 0.00 | 0.03 | 0.00 | 76 | 1017.6 |
| 20260901072405 | 18 | 188 | 3.2 | 11.3 | 0.00 | 0.03 | 0.00 | 74 | 1017.6 |
| 20260901071904 | 18 | 225 | 8.0 | 16.1 | 0.00 | 0.03 | 0.00 | 77 | 1017.6 |
| 20260901071404 | 18 | 204 | 6.4 | 12.9 | 0.00 | 0.03 | 0.00 | 78 | 1017.5 |
| 20260901070905 | 18 | 215 | 4.8 | 12.9 | 0.00 | 0.03 | 0.00 | 78 | 1017.4 |
| 20260901070404 | 17 | 195 | 4.8 | 12.9 | 0.00 | 0.03 | 0.00 | 81 | 1017.4 |
| 20260901065905 | 17 | 207 | 6.4 | 12.9 | 0.00 | 0.03 | 0.00 | 81 | 1017.4 |
| 20260901065405 | 16 | 208 | 8.0 | 16.1 | 0.00 | 0.03 | 0.00 | 84 | 1017.3 |
| 20260901064905 | 16 | 182 | 1.6 | 8.0 | 0.00 | 0.03 | 0.00 | 85 | 1017.2 |
| 20260901064404 | 16 | 182 | 4.8 | 11.3 | 0.00 | 0.03 | 0.00 | 88 | 1017.2 |
| 20260901063904 | 15 | 192 | 3.2 | 4.8 | 0.00 | 0.03 | 0.00 | 90 | 1017.1 |
| 20260901063404 | 15 | 215 | 4.8 | 9.7 | 0.00 | 0.03 | 0.00 | 91 | 1017.1 |
| 20260901062904 | 15 | 208 | 4.8 | 11.3 | 0.00 | 0.03 | 0.00 | 92 | 1017.1 |
| 20260901062404 | 15 | 178 | 4.8 | 8.0 | 0.00 | 0.03 | 0.00 | 92 | 1017.1 |
| 20260901061904 | 15 | 182 | 3.2 | 9.7 | 0.00 | 0.03 | 0.00 | 92 | 1017.1 |
| 20260901061404 | 14 | 157 | 4.8 | 8.0 | 0.00 | 0.03 | 0.00 | 92 | 1017.1 |